When you browse on this site, cookies collect data to enhance your experience and personalize the content and advertising you see.
Visit our Privacy Policy to learn more. By continuing to use the site, you agree to this use of cookies and data.
  • In Sweden
  • List of Countries
  • For 7 days
  • Water Temperature
  • Satellite Maps
  • Weather Map
  • Weather Widgets
  • user-avatar
    Login

    Hourly Weather Przemyslow

    Today, 19 February, Tuesday

    Time Temperature Precipitation Wind Pressure Humidity
    00:00 +3°C° 0 mm 3 mps 755 mmHg 74%
    01:00 +3°C° 0 mm 3 mps 754 mmHg 75%
    02:00 +3°C° 0 mm 3 mps 754 mmHg 77%
    03:00 +2°C° 0 mm 3 mps 753 mmHg 79%
    04:00 +2°C° 0 mm 3 mps 753 mmHg 80%
    05:00 +2°C° 0 mm 3 mps 753 mmHg 79%
    06:00 +2°C° 0 mm 3 mps 752 mmHg 79%
    07:00 +1°C° 0 mm 3 mps 752 mmHg 77%
    08:00 +1°C° 0 mm 4 mps 752 mmHg 72%
    09:00 +4°C° 0 mm 4 mps 751 mmHg 67%
    10:00 +5°C° 0 mm 5 mps 751 mmHg 61%
    11:00 +6°C° 0 mm 5 mps 751 mmHg 59%
    12:00 +8°C° 0 mm 6 mps 751 mmHg 56%
    13:00 +10°C° 0 mm 5 mps 751 mmHg 54%
    14:00 +10°C° 0 mm 5 mps 750 mmHg 57%
    15:00 +9°C° 0 mm 5 mps 750 mmHg 60%
    16:00 +9°C° 0 mm 5 mps 750 mmHg 63%
    17:00 +8°C° 0 mm 5 mps 750 mmHg 69%
    18:00 +7°C° 0 mm 5 mps 751 mmHg 76%
    19:00 +6°C° 0 mm 4 mps 751 mmHg 82%
    20:00 +6°C° 0 mm 4 mps 751 mmHg 83%
    21:00 +5°C° 0 mm 4 mps 751 mmHg 85%
    22:00 +5°C° 0 mm 5 mps 751 mmHg 86%
    23:00 +3°C° 0 mm 5 mps 751 mmHg 86%

    Tomorrow, 20 February, Wednesday

    Time Temperature Precipitation Wind Pressure Humidity
    00:00 +3°C° 0 mm 5 mps 751 mmHg 86%
    01:00 +3°C° 0 mm 5 mps 751 mmHg 86%
    02:00 +2°C° 0 mm 5 mps 752 mmHg 87%
    03:00 +2°C° 0 mm 6 mps 752 mmHg 88%
    04:00 +2°C° 0 mm 6 mps 752 mmHg 89%
    05:00 +2°C° 0 mm 6 mps 752 mmHg 87%
    06:00 +2°C° 0 mm 6 mps 752 mmHg 84%
    07:00 +3°C° 0 mm 6 mps 752 mmHg 81%
    08:00 +3°C° 0.1 mm 6 mps 753 mmHg 79%
    09:00 +3°C° 0.1 mm 7 mps 753 mmHg 76%
    10:00 +3°C° 0.1 mm 7 mps 754 mmHg 73%
    11:00 +4°C° 0.1 mm 7 mps 754 mmHg 71%
    12:00 +4°C° 0.1 mm 7 mps 754 mmHg 69%
    13:00 +4°C° 0.1 mm 7 mps 754 mmHg 68%
    14:00 +4°C° 0.1 mm 7 mps 755 mmHg 68%
    15:00 +4°C° 0.1 mm 6 mps 755 mmHg 69%
    16:00 +4°C° 0.1 mm 6 mps 755 mmHg 70%
    17:00 +5°C° 0 mm 5 mps 755 mmHg 72%
    18:00 +3°C° 0 mm 5 mps 756 mmHg 74%
    19:00 +3°C° 0 mm 5 mps 756 mmHg 76%
    20:00 +4°C° 0 mm 4 mps 756 mmHg 78%
    21:00 +4°C° 0 mm 4 mps 756 mmHg 80%
    22:00 +4°C° 0 mm 4 mps 757 mmHg 82%
    23:00 +3°C° 0 mm 4 mps 757 mmHg 85%

    Day after tomorrow, 21 February, Thursday

    Time Temperature Precipitation Wind Pressure Humidity
    00:00 +3°C° 0 mm 4 mps 757 mmHg 88%
    01:00 +3°C° 0 mm 3 mps 757 mmHg 91%
    02:00 +3°C° 0 mm 3 mps 757 mmHg 92%
    03:00 +3°C° 0 mm 3 mps 757 mmHg 93%
    04:00 +3°C° 0 mm 3 mps 757 mmHg 94%
    05:00 +3°C° 0.1 mm 4 mps 757 mmHg 94%
    06:00 +3°C° 0.1 mm 4 mps 757 mmHg 93%
    07:00 +3°C° 0.1 mm 5 mps 756 mmHg 92%
    08:00 +3°C° 0.4 mm 5 mps 756 mmHg 90%
    09:00 +3°C° 0.4 mm 5 mps 756 mmHg 88%
    10:00 +3°C° 0.4 mm 6 mps 756 mmHg 86%
    11:00 +3°C° 0.8 mm 6 mps 755 mmHg 86%
    12:00 +3°C° 0.8 mm 6 mps 755 mmHg 86%
    13:00 +4°C° 0.8 mm 7 mps 755 mmHg 87%
    14:00 +4°C° 0.3 mm 6 mps 754 mmHg 86%
    15:00 +4°C° 0.3 mm 6 mps 754 mmHg 86%
    16:00 +4°C° 0.3 mm 6 mps 754 mmHg 86%
    17:00 +4°C° 0.3 mm 6 mps 754 mmHg 87%
    18:00 +5°C° 0.3 mm 6 mps 754 mmHg 88%
    19:00 +5°C° 0.3 mm 6 mps 754 mmHg 89%
    20:00 +5°C° 0.2 mm 6 mps 754 mmHg 89%
    21:00 +5°C° 0.2 mm 6 mps 754 mmHg 89%
    22:00 +5°C° 0.2 mm 6 mps 754 mmHg 89%
    23:00 +4°C° 0.3 mm 6 mps 755 mmHg 90%

    22 February, Friday

    Time Temperature Precipitation Wind Pressure Humidity
    00:00 +4°C° 0.3 mm 6 mps 755 mmHg 90%
    01:00 +5°C° 0.3 mm 5 mps 756 mmHg 91%
    02:00 +2°C° 0.3 mm 6 mps 757 mmHg 88%
    03:00 -1°C° 0.3 mm 6 mps 757 mmHg 85%
    04:00 -3°C° 0.3 mm 7 mps 758 mmHg 82%
    05:00 -4°C° 0 mm 7 mps 759 mmHg 77%
    06:00 -4°C° 0 mm 6 mps 761 mmHg 72%
    07:00 -5°C° 0 mm 6 mps 762 mmHg 67%
    08:00 -5°C° 0 mm 6 mps 764 mmHg 63%
    09:00 -4°C° 0 mm 6 mps 765 mmHg 60%
    10:00 -4°C° 0 mm 6 mps 766 mmHg 56%
    11:00 -4°C° 0 mm 6 mps 767 mmHg 53%
    12:00 -4°C° 0 mm 5 mps 767 mmHg 49%
    13:00 -2°C° 0 mm 5 mps 768 mmHg 46%
    14:00 -2°C° 0 mm 4 mps 768 mmHg 46%
    15:00 -3°C° 0 mm 4 mps 769 mmHg 47%
    16:00 -3°C° 0 mm 4 mps 769 mmHg 47%
    17:00 -2°C° 0 mm 3 mps 769 mmHg 50%
    18:00 -4°C° 0 mm 3 mps 770 mmHg 53%
    19:00 -3°C° 0 mm 2 mps 770 mmHg 56%
    20:00 -3°C° 0 mm 2 mps 771 mmHg 55%
    21:00 -1°C° 0 mm 1 mps 771 mmHg 55%
    22:00 -2°C° 0 mm 1 mps 771 mmHg 54%
    23:00 -2°C° 0 mm 1 mps 771 mmHg 54%

    23 February, Saturday

    Time Temperature Precipitation Wind Pressure Humidity
    00:00 -2°C° 0 mm 1 mps 771 mmHg 53%
    01:00 -2°C° 0 mm 1 mps 771 mmHg 53%
    02:00 -2°C° 0 mm 1 mps 771 mmHg 53%
    03:00 -2°C° 0 mm 1 mps 771 mmHg 53%
    04:00 -2°C° 0 mm 1 mps 771 mmHg 53%
    05:00 -2°C° 0 mm 1 mps 771 mmHg 53%
    06:00 -2°C° 0 mm 1 mps 771 mmHg 54%
    07:00 -2°C° 0 mm 1 mps 770 mmHg 54%
    08:00 -1°C° 0 mm 1 mps 770 mmHg 49%
    09:00 0°C° 0 mm 1 mps 771 mmHg 45%
    10:00 0°C° 0 mm 1 mps 771 mmHg 40%
    11:00 -1°C° 0 mm 2 mps 770 mmHg 38%
    12:00 +1°C° 0 mm 2 mps 770 mmHg 35%
    13:00 +2°C° 0 mm 2 mps 770 mmHg 33%
    14:00 +2°C° 0 mm 2 mps 769 mmHg 36%
    15:00 +1°C° 0 mm 2 mps 769 mmHg 39%
    16:00 +1°C° 0 mm 2 mps 768 mmHg 43%
    17:00 +1°C° 0 mm 2 mps 768 mmHg 47%
    18:00 +1°C° 0 mm 1 mps 768 mmHg 52%
    19:00 +1°C° 0 mm 1 mps 768 mmHg 56%
    20:00 +1°C° 0 mm 1 mps 768 mmHg 56%
    21:00 +1°C° 0 mm 1 mps 767 mmHg 56%
    22:00 -1°C° 0 mm 2 mps 767 mmHg 55%
    23:00 -1°C° 0 mm 2 mps 767 mmHg 57%

    24 February, Sunday

    Time Temperature Precipitation Wind Pressure Humidity
    00:00 -1°C° 0 mm 2 mps 766 mmHg 58%
    01:00 -1°C° 0 mm 3 mps 766 mmHg 60%
    02:00 -1°C° 0 mm 3 mps 766 mmHg 67%
    03:00 -1°C° 0 mm 3 mps 766 mmHg 73%
    04:00 -1°C° 0 mm 3 mps 766 mmHg 80%
    05:00 -1°C° 0 mm 3 mps 766 mmHg 85%
    06:00 -1°C° 0 mm 3 mps 766 mmHg 89%
    07:00 +1°C° 0 mm 2 mps 766 mmHg 94%
    08:00 0°C° 0 mm 3 mps 766 mmHg 91%
    09:00 +1°C° 0 mm 3 mps 767 mmHg 89%
    10:00 +2°C° 0 mm 3 mps 767 mmHg 87%
    11:00 +2°C° 0 mm 3 mps 767 mmHg 86%
    12:00 +4°C° 0 mm 2 mps 767 mmHg 84%
    13:00 +4°C° 0 mm 2 mps 768 mmHg 82%
    14:00 +4°C° 0 mm 2 mps 768 mmHg 82%
    15:00 +4°C° 0 mm 2 mps 768 mmHg 81%
    16:00 +3°C° 0 mm 2 mps 768 mmHg 80%
    17:00 +3°C° 0 mm 2 mps 768 mmHg 82%
    18:00 +2°C° 0 mm 2 mps 768 mmHg 83%
    19:00 +2°C° 0 mm 2 mps 769 mmHg 85%
    20:00 +2°C° 0 mm 2 mps 769 mmHg 85%
    21:00 +1°C° 0 mm 2 mps 769 mmHg 86%
    22:00 +2°C° 0 mm 1 mps 769 mmHg 86%
    23:00 +2°C° 0 mm 1 mps 769 mmHg 86%
    Show more